Tracking 19574 objects as of 16-Feb-2019
HD Live streaming from Space Station
objects crossing your sky now

INFORMATOR 1

Track INFORMATOR 1 now!
10-day predictions
INFORMATOR 1 is classified as:


NORAD ID: 21087
Int'l Code: 1991-006A
Perigee: 961.6 km
Apogee: 1,014.1 km
Inclination: 82.9 °
Period: 104.7 minutes
Semi major axis: 7358 km
RCS: 1.8857 m2 (large)
Launch date: January 29, 1991
Source: Commonwealth of Independent States (former USSR) (CIS)
Launch site: PLESETSK MISSILE AND SPACE COMPLEX (PKMTR)
aabbcc
Your satellite tracking list
Your tracking list is empty




NASA's NSSDC Master Catalog

Two Line Element Set (TLE):
1 21087U 91006A   19046.85327025 +.00000022 +00000-0 +72527-5 0  9998
2 21087 082.9451 310.1944 0035711 150.2200 279.8219 13.75270266407387
Source of the keplerian elements: AFSPC